Terug naar catalogus

FENGYUN 1C DEB

ActiefSSO
NORAD 33711·DEBRIS·🇨🇳 China

Gelanceerd May 10, 1999 vanaf Taiyuan Satellite Launch Center

Loading…

Volgende Passages (komende 24 uur)

TLE

VersSource: Space-Track

Epoch: Sep 13, 2026, 21:56 UTC

1 33711U 99025DGY 26256.91413935  .00000969  00000-0  64498-3 0  9994
2 33711  99.1607 316.5733 0096856  10.9552 165.5771 14.01446261957858

Volg FENGYUN 1C DEB in realtime met AllMySat

Download on the App Store